Location: Eboldshausen
(51.7766°N, 10.0050°E)
Time: 06:19:12
(UTC+00:00)

ISS - Pass Details

Date: 15 November 2025
Orbit: 416 x 420 km, 51.6° (Epoch: 10 December)

Event Time Altitude Azimuth Distance (km) Brightness Sun altitude
Rises 18:42:36 0° 250° (WSW) 2,364 1.0 -29.6°
Reaches altitude 10° 18:44:42 10° 247° (WSW) 1,500 -0.3 -30.0°
Enters shadow 18:45:00 12° 247° (WSW) 1,376 -0.5 -30.0°
